Location: Chandrammap?lem
(16.9200°N, 81.0051°E)
Time: 20:02:18
(UTC+00:00)

GPS 2-17 Rocket1 - Pass Details

Date: 29 May 2024
Orbit: 559 x 638 km, 20.3° (Epoch: 14 June)

Event Time Altitude Azimuth Distance (km) Brightness Sun altitude
Rises 14:38:51 0° 281° (W) 2,835 7.7 -20.7°
Reaches altitude 10° 14:41:10 10° 280° (W) 1,946 6.6 -21.2°
Maximum altitude 14:45:44 81° 195° (SSW) 625 2.9 -22.1°
Enters shadow 14:46:15 69° 128° (SE) 660 2.9 -22.2°
